Wetbulb
42.31 40.73 39.49 38.30 37.62 36.82 36.51 36.22 36.53 36.23 36.02 35.93 36.33 35.86 35.35 35.28 35.52 35.07 33.60 32.58 33.18 34.34
39.13 38.44 37.46 36.85 36.56 36.21 35.90 37.66 35.63 35.21 34.72 34.86 35.02 34.92 34.41 33.79 32.92 32.79 32.59 32.23 32.48 33.23
37.44 37.05 36.50 35.78 34.69 34.75 34.75 34.90 34.41 34.10 33.91 34.04 34.13 33.77 32.82 32.24 32.80 32.52 32.04 33.86 32.83 33.36
36.39 36.20 35.36 34.36 34.07 33.92 34.17 33.93 33.85 33.71 33.48 33.05 32.77 32.54 31.74 31.29 32.33 31.79 30.97 32.00 32.67 32.87
36.10 34.98 33.87 33.46 33.75 34.12 33.19 33.36 33.33 33.10 32.76 32.47 32.51 31.95 30.78 30.56 31.12 29.97 30.35 31.22 31.63 31.68
34.48 33.69 32.77 32.95 33.48 33.74 32.94 32.30 32.51 32.66 31.91 31.87 32.27 31.56 30.89 31.51 29.87 30.56 30.75 31.07 30.95 31.07
33.17 32.92 32.59 32.86 32.99 33.04 32.38 31.85 31.65 31.85 32.02 32.11 32.04 31.94 32.11 30.94 30.55 30.12 30.83 31.26 31.18 31.18
33.42 33.17 33.12 32.79 32.68 32.50 32.33 32.19 31.98 31.77 31.53 31.30 31.83 33.34 31.92 31.85 30.35 29.54 29.72 30.25 30.91 31.83
33.25 32.91 32.44 32.04 31.73 31.13 30.92 30.65 30.76 30.29 30.20 29.47 32.66 35.87 36.29 34.86 30.58 29.64 29.25 28.88 30.18 30.82
32.60 32.27 31.59 31.27 30.42 29.82 29.20 29.22 28.73 28.59 28.74 27.97 28.22 35.35 35.99 35.74 31.08 29.48 29.16 29.15 29.29 29.62
32.08 30.86 30.24 29.31 28.64 28.35 28.54 27.70 27.33 27.51 27.81 27.55 29.82 34.86 35.14 35.25 30.49 29.43 29.26 29.46 29.33 28.94
30.45 29.15 28.91 27.83 27.27 27.57 27.14 26.71 26.46 28.02 27.56 26.48 27.55 33.84 34.72 33.72 29.71 29.34 28.84 29.77 29.76 30.04
29.79 28.72 27.49 27.10 26.80 27.28 26.99 28.10 28.98 28.40 27.29 29.62 27.41 32.69 34.69 33.55 30.30 28.47 28.31 28.88 29.64 32.36
29.16 28.10 27.80 27.19 26.82 26.45 26.08 26.65 25.40 26.16 26.07 25.87 27.68 29.08 33.96 33.91 30.24 28.73 28.28 28.20 27.47 28.52
MSLP
1015.02 1015.39 1015.69 1015.94 1016.12 1016.27 1016.35 1016.33 1016.31 1016.28 1016.17 1016.07 1015.82 1015.62 1015.48 1015.31 1015.14 1014.87 1014.71 1014.53 1014.23 1013.86
1015.34 1015.65 1016.00 1016.16 1016.31 1016.43 1016.49 1016.48 1016.51 1016.43 1016.34 1016.17 1015.96 1015.74 1015.53 1015.39 1015.21 1014.92 1014.61 1014.27 1013.92 1013.62
1015.73 1015.97 1016.20 1016.40 1016.60 1016.69 1016.67 1016.67 1016.63 1016.53 1016.38 1016.20 1016.01 1015.82 1015.61 1015.39 1015.13 1014.83 1014.43 1014.06 1013.77 1013.26
1016.06 1016.25 1016.51 1016.73 1016.81 1016.89 1016.87 1016.82 1016.74 1016.61 1016.45 1016.27 1016.05 1015.80 1015.54 1015.27 1014.94 1014.69 1014.33 1014.05 1013.60 1013.02
1016.38 1016.62 1016.83 1016.99 1017.07 1017.09 1017.05 1016.97 1016.85 1016.67 1016.49 1016.27 1016.04 1015.73 1015.45 1015.21 1014.91 1014.63 1014.38 1014.05 1013.55 1012.84
1016.78 1017.00 1017.19 1017.28 1017.27 1017.24 1017.15 1017.01 1016.85 1016.68 1016.47 1016.21 1015.92 1015.58 1015.28 1014.99 1014.75 1014.59 1014.38 1014.01 1013.43 1012.70
1017.12 1017.30 1017.37 1017.35 1017.36 1017.31 1017.18 1017.04 1016.87 1016.63 1016.37 1016.07 1015.75 1015.44 1015.04 1014.73 1014.53 1014.37 1014.15 1013.84 1013.25 1012.49
1017.27 1017.36 1017.40 1017.42 1017.40 1017.35 1017.30 1017.10 1016.82 1016.52 1016.27 1015.96 1015.63 1015.15 1014.79 1014.52 1014.26 1014.07 1013.83 1013.51 1012.84 1011.92
1017.37 1017.46 1017.52 1017.51 1017.50 1017.45 1017.23 1016.93 1016.63 1016.45 1016.21 1015.83 1015.45 1015.10 1014.65 1014.19 1013.88 1013.77 1013.52 1012.86 1012.02 1011.38
1017.42 1017.59 1017.59 1017.52 1017.50 1017.35 1017.05 1016.75 1016.61 1016.37 1016.04 1015.73 1015.31 1014.79 1014.16 1013.74 1013.48 1013.27 1012.93 1012.33 1011.60 1010.73
1017.46 1017.64 1017.63 1017.63 1017.50 1017.24 1016.99 1016.85 1016.60 1016.22 1015.83 1015.48 1014.99 1014.37 1013.79 1013.35 1012.93 1012.66 1012.26 1011.77 1011.17 1010.39
1017.55 1017.71 1017.73 1017.58 1017.45 1017.23 1017.03 1016.74 1016.40 1015.96 1015.59 1015.21 1014.58 1014.04 1013.47 1012.93 1012.50 1012.04 1011.56 1011.09 1010.60 1010.07
1017.51 1017.59 1017.59 1017.49 1017.43 1017.11 1016.87 1016.56 1016.14 1015.73 1015.29 1014.74 1014.17 1013.72 1013.12 1012.66 1012.23 1011.64 1011.09 1010.51 1010.10 1009.45
1017.42 1017.42 1017.33 1017.36 1017.19 1016.93 1016.77 1016.44 1016.06 1015.54 1014.91 1014.50 1014.10 1013.54 1013.13 1012.69 1011.94 1011.46 1010.71 1010.28 1009.32 1008.59
Wind_Speed
8 5 5 6 4 4 3 2 4 5 5 6 6 5 5 4 4 6 5 7 6 5
7 7 6 7 5 4 4 4 6 6 6 6 7 6 6 4 6 5 5 6 6 6
7 7 6 6 5 5 5 5 5 6 6 6 6 6 6 5 6 7 5 7 9 10
6 7 6 5 4 5 5 6 5 6 6 6 6 6 6 6 8 9 7 9 12 13
7 6 5 4 5 5 5 5 6 6 6 6 6 6 7 7 8 7 11 13 14 15
6 5 5 5 5 5 5 5 6 6 6 6 7 7 7 9 6 9 11 13 15 16
5 4 3 3 4 5 5 6 6 6 6 7 7 7 9 6 8 8 11 13 15 15
3 3 3 4 4 5 6 6 6 6 7 7 7 8 11 11 8 9 12 14 15 14
3 3 3 4 5 6 6 6 6 7 7 7 7 19 23 19 10 8 12 14 14 14
2 3 3 4 5 6 6 6 7 7 6 7 7 21 23 23 10 9 11 13 14 14
2 3 4 5 6 6 5 6 6 6 7 7 9 22 22 23 9 10 10 12 14 15
2 3 5 6 6 6 5 6 5 6 8 8 9 17 23 20 10 12 13 12 12 15
2 3 5 5 6 4 5 7 7 9 7 11 10 16 22 20 10 12 11 12 13 22
3 4 4 5 4 5 6 6 6 8 7 7 9 11 23 26 13 11 13 11 12 11
Wind_Direction
73 75 71 68 59 47 47 16 20 8 1 351 344 340 338 328 329 315 318 309 296 294
79 76 72 60 55 33 26 17 11 3 353 342 340 343 340 329 313 318 302 290 295 292
84 75 70 63 49 27 10 20 1 354 347 335 336 335 334 320 312 310 300 313 309 300
74 66 64 56 36 21 11 2 354 343 337 331 328 327 329 320 311 314 313 321 310 308
74 64 60 42 26 13 5 351 338 339 331 325 323 323 317 313 310 317 330 320 313 308
74 58 45 32 14 360 348 336 330 329 322 319 311 310 308 306 325 327 320 314 310 308
73 64 36 22 4 342 335 325 322 313 309 303 303 306 304 319 319 313 316 309 306 302
74 56 27 5 342 329 325 312 303 307 308 301 306 309 320 317 313 316 317 307 301 297
65 27 353 344 329 312 300 305 312 309 300 306 315 319 315 316 316 315 306 302 305 304
49 348 348 324 309 305 316 319 310 308 312 309 306 312 315 318 312 301 302 301 307 306
39 348 324 315 320 325 312 311 309 307 304 300 300 313 317 316 312 298 294 298 300 302
18 327 319 322 322 315 314 310 296 302 302 298 297 315 318 318 312 306 303 304 306 310
332 311 313 316 314 297 307 301 308 303 297 301 315 312 320 329 319 312 312 313 311 307
317 316 313 312 303 300 308 297 296 304 308 312 313 322 331 326 322 319 321 316 313 309